DW4236 Weather Reports


Display with metric or nautical units.
time (UTC)temp
F
wind
direction
speed
MPH
gust
MPH
rain 1hr
in
rain 24hr
in
rain mn
in
humidity
%
barometer
mb
20260505055604 60 271 5.0 10.0 0.00 0.00 0.00 60 1010.5
20260505055104 60 304 0.0 2.0 0.00 0.00 0.00 59 1010.5
20260505054605 60 294 2.0 7.0 0.00 0.00 0.00 59 1010.5
20260505054105 60 281 2.0 8.0 0.00 0.00 0.00 59 1010.6
20260505053603 61 258 3.0 7.0 0.00 0.00 0.00 58 1010.6
20260505053104 61 282 2.0 8.0 0.00 0.00 0.00 58 1010.6
20260505051604 60 281 3.0 6.0 0.00 0.00 0.00 58 1010.5
20260505051104 61 290 1.0 8.0 0.00 0.00 0.00 57 1010.5
20260505050604 61 252 1.0 3.0 0.00 0.00 0.00 57 1010.5
20260505050105 61 306 2.0 6.0 0.00 0.00 0.00 56 1010.4
20260505041604 61 281 2.0 8.0 0.00 0.00 0.00 56 1010.7
20260505041104 61 276 0.0 1.0 0.00 0.00 0.00 56 1010.6
20260505040604 61 276 1.0 5.0 0.00 0.00 0.00 55 1010.7
20260505040104 61 242 2.0 9.0 0.00 0.00 0.00 56 1010.7
20260505035604 61 270 0.0 2.0 0.00 0.00 0.00 56 1010.7
20260505035104 61 273 1.0 5.0 0.00 0.00 0.00 56 1010.7
20260505034604 60 263 2.0 7.0 0.00 0.00 0.00 57 1010.7
20260505034104 60 266 1.0 3.0 0.00 0.00 0.00 57 1010.8
20260505033605 60 266 1.0 3.0 0.00 0.00 0.00 56 1010.8
20260505033104 60 266 2.0 3.0 0.00 0.00 0.00 56 1010.9
20260505032605 60 266 0.0 3.0 0.00 0.00 0.00 57 1010.9
20260505032105 60 266 0.0 2.0 0.00 0.00 0.00 56 1010.9
20260505031604 60 266 0.0 2.0 0.00 0.00 0.00 56 1010.9
20260505031103 61 266 0.0 1.0 0.00 0.00 0.00 56 1010.9
20260505030104 61 266 1.0 3.0 0.00 0.00 0.00 55 1010.9
20260505025603 61 266 1.0 2.0 0.00 0.00 0.00 55 1010.9
20260505024604 62 254 0.0 2.0 0.00 0.00 0.00 54 1010.9
20260505024105 62 280 2.0 5.0 0.00 0.00 0.00 54 1010.9
20260505023104 62 274 2.0 3.0 0.00 0.00 0.00 54 1011.0
20260505022605 62 272 1.0 6.0 0.00 0.00 0.00 54 1011.0
20260505022105 62 286 0.0 3.0 0.00 0.00 0.00 54 1011.0
20260505021604 62 201 1.0 2.0 0.00 0.00 0.00 54 1011.0
20260505021103 62 234 1.0 3.0 0.00 0.00 0.00 54 1011.1
20260505020604 62 244 0.0 3.0 0.00 0.00 0.00 53 1011.0
20260505020104 62 284 0.0 6.0 0.00 0.00 0.00 53 1011.0
20260505015604 62 233 1.0 3.0 0.00 0.00 0.00 53 1010.9
20260505015104 62 222 0.0 1.0 0.00 0.00 0.00 53 1010.9
20260505014604 62 222 1.0 3.0 0.00 0.00 0.00 53 1010.9
20260505014103 62 262 1.0 3.0 0.00 0.00 0.00 53 1010.9
20260505013604 62 253 1.0 3.0 0.00 0.00 0.00 53 1010.8
20260505013105 62 253 1.0 2.0 0.00 0.00 0.00 53 1010.7
20260505012604 63 251 1.0 3.0 0.00 0.00 0.00 52 1010.6
20260505012104 63 251 0.0 1.0 0.00 0.00 0.00 52 1010.6
20260505011604 63 251 0.0 1.0 0.00 0.00 0.00 52 1010.5
20260505011104 63 251 0.0 2.0 0.00 0.00 0.00 51 1010.5
20260505010604 63 251 0.0 1.0 0.00 0.00 0.00 51 1010.4
20260505005604 64 251 0.0 1.0 0.00 0.00 0.00 49 1010.3
20260505005104 64 251 0.0 1.0 0.00 0.00 0.00 49 1010.2
20260505004604 64 251 0.0 0.0 0.00 0.00 0.00 49 1010.1
20260505003604 65 251 1.0 2.0 0.00 0.00 0.00 48 1010.0
20260505003105 65 251 0.0 0.0 0.00 0.00 0.00 47 1010.0
20260505002604 65 251 1.0 6.0 0.00 0.00 0.00 47 1009.9
20260505002104 66 274 1.0 3.0 0.00 0.00 0.00 47 1009.8
20260505001604 66 267 1.0 3.0 0.00 0.00 0.00 46 1009.7
20260505001104 66 266 1.0 3.0 0.00 0.00 0.00 45 1009.6
20260505000603 67 265 0.0 0.0 0.00 0.00 0.00 45 1009.5
20260505000104 67 265 0.0 2.0 0.00 0.00 0.00 44 1009.4
20260504235604 68 265 0.0 0.0 0.00 0.00 0.00 43 1009.4
20260504235104 68 264 2.0 5.0 0.00 0.00 0.00 42 1009.3
20260504234603 69 282 0.0 7.0 0.00 0.00 0.00 41 1009.2
20260504234104 69 279 2.0 6.0 0.00 0.00 0.00 41 1009.2
20260504233604 69 285 3.0 8.0 0.00 0.00 0.00 40 1009.2
20260504232604 69 244 2.0 5.0 0.00 0.00 0.00 41 1009.0
20260504232104 70 279 2.0 8.0 0.00 0.00 0.00 40 1008.9
20260504231604 70 231 1.0 12.0 0.00 0.00 0.00 41 1008.9
20260504231103 70 254 3.0 7.0 0.00 0.00 0.00 40 1008.9
20260504230604 70 260 3.0 12.0 0.00 0.00 0.00 40 1008.8
20260504230105 71 274 3.0 10.0 0.00 0.00 0.00 38 1008.8
20260504225604 71 270 5.0 12.0 0.00 0.00 0.00 39 1008.7
20260504225103 71 236 5.0 9.0 0.00 0.00 0.00 38 1008.7
20260504224604 71 229 5.0 12.0 0.00 0.00 0.00 37 1008.7
20260504224104 71 288 5.0 14.0 0.00 0.00 0.00 37 1008.7
20260504223104 72 263 5.0 12.0 0.00 0.00 0.00 37 1008.6
20260504222103 72 261 5.0 12.0 0.00 0.00 0.00 38 1008.6
20260504221604 72 285 6.0 13.0 0.00 0.00 0.00 37 1008.7
20260504221104 72 302 5.0 14.0 0.00 0.00 0.00 37 1008.7
20260504220104 73 274 4.0 12.0 0.00 0.00 0.00 37 1008.8
20260504215603 73 264 3.0 16.0 0.00 0.00 0.00 37 1008.8
20260504215105 73 292 3.0 15.0 0.00 0.00 0.00 36 1008.8
20260504214603 73 274 2.0 17.0 0.00 0.00 0.00 37 1008.9
20260504213603 73 290 7.0 20.0 0.00 0.00 0.00 36 1009.1
20260504213104 73 277 5.0 9.0 0.00 0.00 0.00 37 1009.1
20260504212604 73 268 5.0 12.0 0.00 0.00 0.00 35 1009.2
20260504212103 74 242 7.0 15.0 0.00 0.00 0.00 36 1009.1
20260504211604 74 276 6.0 12.0 0.00 0.00 0.00 36 1009.1
20260504210603 73 288 9.0 17.0 0.00 0.00 0.00 35 1009.2
20260504205604 74 268 6.0 18.0 0.00 0.00 0.00 36 1009.3
20260504205104 74 286 5.0 15.0 0.00 0.00 0.00 36 1009.3
20260504204604 74 235 3.0 12.0 0.00 0.00 0.00 37 1009.2
20260504204103 74 304 10.0 18.0 0.00 0.00 0.00 34 1009.3
20260504203605 74 283 6.0 12.0 0.00 0.00 0.00 37 1009.2
20260504202604 74 298 7.0 14.0 0.00 0.00 0.00 34 1009.3
20260504202104 74 299 10.0 16.0 0.00 0.00 0.00 33 1009.3
20260504201104 74 269 6.0 12.0 0.00 0.00 0.00 35 1009.3
20260504200604 73 299 7.0 17.0 0.00 0.00 0.00 35 1009.4
20260504200103 74 277 9.0 15.0 0.00 0.00 0.00 35 1009.5
20260504195603 74 303 4.0 15.0 0.00 0.00 0.00 34 1009.6
20260504195103 74 272 4.0 15.0 0.00 0.00 0.00 37 1009.7
20260504194604 74 258 7.0 14.0 0.00 0.00 0.00 36 1009.8
20260504194105 73 293 5.0 16.0 0.00 0.00 0.00 35 1009.8
20260504193604 74 281 9.0 16.0 0.00 0.00 0.00 35 1010.0
20260504193104 73 293 8.0 13.0 0.00 0.00 0.00 34 1009.9
20260504191605 73 282 8.0 14.0 0.00 0.00 0.00 34 1009.9
20260504191105 73 276 4.0 13.0 0.00 0.00 0.00 36 1009.9
20260504190604 73 289 6.0 16.0 0.00 0.00 0.00 36 1010.1
20260504185605 73 293 7.0 20.0 0.00 0.00 0.00 35 1010.2
20260504185104 73 307 6.0 22.0 0.00 0.00 0.00 35 1010.1
20260504184603 73 267 9.0 15.0 0.00 0.00 0.00 36 1010.2
20260504184104 72 245 6.0 17.0 0.00 0.00 0.00 37 1010.2
20260504182604 72 264 8.0 14.0 0.00 0.00 0.00 37 1010.4
20260504181604 72 315 7.0 14.0 0.00 0.00 0.00 37 1010.5
20260504181103 71 269 6.0 16.0 0.00 0.00 0.00 38 1010.7
20260504180103 70 271 6.0 12.0 0.00 0.00 0.00 40 1010.8
20260504175605 71 271 6.0 17.0 0.00 0.00 0.00 38 1010.9
20260504175103 71 280 9.0 22.0 0.00 0.00 0.00 37 1010.9
20260504174605 71 302 6.0 14.0 0.00 0.00 0.00 36 1011.0
20260504174104 71 312 7.0 16.0 0.00 0.00 0.00 39 1011.1
20260504173604 71 295 7.0 15.0 0.00 0.00 0.00 37 1011.2
20260504173104 70 306 6.0 12.0 0.00 0.00 0.00 37 1011.3
20260504172604 70 291 8.0 16.0 0.00 0.00 0.00 37 1011.3
20260504172103 70 285 5.0 13.0 0.00 0.00 0.00 40 1011.3
20260504171604 69 263 8.0 18.0 0.00 0.00 0.00 39 1011.4
20260504171104 69 251 8.0 18.0 0.00 0.00 0.00 39 1011.4
20260504170604 69 242 7.0 18.0 0.00 0.00 0.00 40 1011.4
20260504160104 68 274 5.0 15.0 0.00 0.00 0.00 39 1012.0
20260504151103 67 317 6.0 15.0 0.00 0.00 0.00 39 1012.6
20260504150605 66 330 6.0 14.0 0.00 0.00 0.00 41 1012.7
20260504150105 66 280 9.0 17.0 0.00 0.00 0.00 39 1012.8
20260504141105 64 299 8.0 20.0 0.00 0.00 0.00 39 1013.5
20260504140604 63 302 7.0 20.0 0.00 0.00 0.00 41 1013.5
20260504140107 63 299 8.0 17.0 0.00 0.00 0.00 40 1013.4
20260504130605 61 285 10.0 20.0 0.00 0.00 0.00 42 1013.7
20260504130105 60 316 5.0 17.0 0.00 0.00 0.00 44 1013.9
20260504120105 56 283 3.0 12.0 0.00 0.00 0.00 51 1014.1
20260504110605 51 299 4.0 9.0 0.00 0.00 0.00 58 1014.1
20260504110106 50 298 2.0 3.0 0.00 0.00 0.00 59 1014.2
20260504100604 49 306 3.0 8.0 0.00 0.00 0.00 58 1014.0
20260504100105 49 294 3.0 8.0 0.00 0.00 0.00 58 1013.9
20260504090105 49 294 5.0 10.0 0.00 0.00 0.00 59 1013.9
20260504081605 45 305 0.0 0.0 0.00 0.00 0.00 70 1013.7
20260504080605 42 283 0.0 0.0 0.00 0.00 0.00 77 1013.8
20260504080105 41 293 0.0 0.0 0.00 0.00 0.00 78 1013.8
20260504070106 44 307 0.0 0.0 0.00 0.00 0.00 70 1013.8
20260504060105 42 284 0.0 0.0 0.00 0.00 0.00 78 1013.5